Wind_Speed
15 12 10 16 2 5 13 14 10 12 15 15 18 15 19 14 8 14 25 27 30 23 19 19 18 17 19 17 14 15 16 16 13 15 13 14 15 16 15 14 15 14 16 16 16 15 15 14 14
14 15 8 3 3 1 10 14 15 13 21 15 15 11 21 23 23 26 25 27 25 24 20 20 18 18 18 18 14 15 15 16 15 15 14 13 14 15 15 12 14 14 15 17 18 17 16 15 15
13 16 6 5 2 5 12 15 14 16 20 4 17 21 16 19 21 22 29 26 22 24 21 21 19 17 17 19 14 14 15 16 15 14 14 14 13 14 17 14 15 15 14 15 17 17 15 15 16
9 5 5 4 7 13 19 16 12 16 18 7 17 15 19 28 18 27 24 29 23 23 18 20 20 19 18 17 15 15 16 16 15 15 14 13 14 14 16 15 16 16 16 16 16 15 14 15 16
16 7 6 3 1 16 16 15 10 13 9 15 19 17 16 24 30 24 23 39 32 19 21 18 20 20 18 16 16 17 16 16 15 16 15 13 14 14 14 15 15 15 16 15 14 13 13 14 14
3 5 5 7 3 16 13 13 11 12 10 20 18 14 14 22 21 25 21 36 30 30 24 22 20 20 18 16 17 16 16 15 15 15 14 13 13 15 14 14 14 15 15 14 14 14 13 13 13
9 6 5 7 6 15 14 21 7 10 13 15 19 18 14 18 16 25 17 22 27 26 23 23 20 19 18 18 17 17 16 15 14 15 15 14 14 14 13 13 14 12 10 12 12 14 14 13 13
8 7 3 4 9 12 14 12 12 10 17 21 10 14 14 21 18 21 17 18 23 15 23 24 20 20 19 17 17 17 17 16 15 15 16 15 14 14 13 13 12 11 10 11 10 10 10 12 15
5 5 4 4 2 4 4 8 7 11 9 15 17 15 23 20 22 15 14 17 22 23 13 18 22 17 23 18 16 16 17 17 18 16 18 18 18 14 10 10 11 9 9 9 9 9 8 10 14
5 2 5 6 14 14 14 5 7 9 12 20 16 23 23 17 21 17 16 11 17 31 20 13 22 22 19 16 18 14 14 15 11 9 11 11 17 14 10 9 9 9 8 7 7 5 5 7 6
4 1 12 13 11 11 3 8 14 3 7 15 20 18 18 17 20 19 19 15 25 19 17 14 17 16 16 14 22 26 15 15 13 11 15 14 13 12 11 10 9 8 5 5 6 4 6 8 11
5 4 7 12 8 2 6 4 14 18 11 13 20 18 15 14 13 18 20 18 27 24 23 19 17 16 17 15 12 20 18 16 13 11 12 12 13 10 7 7 6 9 7 2 3 6 2 1 7
7 6 3 6 7 6 6 4 8 10 22 11 19 17 16 11 12 17 18 27 26 28 22 27 21 18 10 11 16 19 19 20 16 17 11 9 14 10 5 7 7 8 9 5 6 8 8 7 7
4 5 8 5 7 8 15 3 3 9 13 16 17 17 18 15 11 21 21 17 16 24 21 21 18 19 5 10 14 16 12 14 14 12 6 10 12 10 7 7 9 3 2 6 6 5 6 8 6
15 13 7 6 6 3 8 6 4 19 17 16 14 15 17 14 19 15 17 20 17 20 23 22 17 11 8 5 9 17 15 12 17 13 8 6 6 11 11 9 9 6 3 4 4 5 2 12 11
12 6 5 10 9 5 3 2 14 17 14 4 14 14 15 15 16 15 18 18 22 20 22 17 17 13 9 10 14 6 7 20 13 16 10 8 5 6 7 10 9 6 8 11 10 8 10 12 11
10 9 5 5 9 7 9 4 11 21 19 1 8 10 16 15 13 18 19 17 21 22 20 16 25 21 14 13 9 2 12 11 7 8 10 9 6 8 8 10 8 9 14 17 14 12 9 9 14
14 11 8 13 11 9 10 8 15 18 7 4 11 17 17 17 13 20 21 21 19 22 20 16 25 22 16 13 6 8 9 5 9 8 12 11 7 9 5 3 3 7 9 3 8 5 9 9 10
4 5 7 12 8 6 10 12 15 18 14 12 16 16 10 19 22 22 22 25 24 22 21 15 28 23 18 13 12 10 11 13 17 7 10 8 6 5 4 4 3 4 4 9 10 10 16 14 2
5 8 7 9 9 4 8 12 18 20 19 17 18 11 17 17 16 19 21 25 25 24 22 18 18 22 19 19 13 15 11 10 13 18 13 12 8 6 1 4 4 10 14 7 5 7 17 20 19
7 13 9 6 6 7 9 11 13 18 17 18 20 13 22 14 22 18 22 25 27 27 24 20 18 21 21 13 14 7 11 14 15 13 12 8 8 5 3 6 3 4 10 4 9 16 13 6 15
12 13 11 4 2 8 8 3 9 16 20 19 22 23 26 20 20 19 23 23 29 30 30 27 20 20 19 13 12 12 11 14 16 15 16 14 10 8 7 5 4 10 3 1 8 8 3 4 6
12 7 6 4 9 13 12 8 9 18 18 18 21 24 23 20 14 21 20 29 30 32 30 31 24 23 20 16 14 13 12 7 5 10 12 11 11 8 8 10 6 10 10 7 8 10 10 5 2
8 9 6 13 10 12 17 16 13 6 9 8 16 21 22 15 17 18 25 30 29 32 29 32 29 25 19 17 15 16 15 5 12 9 8 10 11 14 11 9 7 6 8 8 8 8 9 10 10
10 11 9 9 10 8 15 12 2 13 6 10 19 19 21 19 20 15 9 20 30 34 29 31 31 28 26 19 19 19 14 13 14 13 12 12 13 14 9 13 10 10 10 8 5 6 9 8 7
14 14 12 13 2 7 5 3 3 10 7 9 5 26 19 23 17 15 15 17 22 30 31 29 33 27 26 23 21 18 16 14 15 14 14 13 12 13 9 15 12 12 11 8 9 9 10 10 12
13 11 15 19 18 13 10 13 13 10 6 5 10 19 20 19 17 15 16 28 26 24 32 28 32 29 27 27 23 21 17 17 15 14 16 9 10 8 14 12 11 13 12 12 12 11 12 13 9
15 6 6 8 15 14 9 6 7 7 7 11 1 9 12 17 19 7 12 10 32 30 32 30 35 30 27 26 28 25 21 18 15 7 11 12 10 13 10 10 12 15 14 14 14 14 14 17 13
10 12 7 10 6 10 12 5 7 10 6 8 14 16 11 10 13 11 14 14 14 30 29 32 34 30 29 27 28 27 25 24 19 15 14 13 14 11 13 13 13 15 15 16 15 16 19 11 13
10 9 8 7 10 8 7 8 13 7 6 12 10 11 13 4 9 7 8 8 9 22 33 32 34 31 30 28 25 26 26 24 23 20 19 17 14 13 14 14 14 15 15 14 16 17 15 13 13
Wind_Direction
257 259 243 254 346 286 98 102 82 56 72 63 62 55 63 47 97 109 123 136 141 138 129 121 113 111 109 107 115 121 118 116 110 108 103 103 102 99 98 100 96 97 94 97 102 105 107 109 109
261 271 249 3 247 29 96 94 79 70 55 29 74 64 68 85 93 117 124 142 133 134 131 126 121 115 112 120 121 117 117 115 111 112 106 104 100 100 98 91 97 98 92 93 96 102 105 109 108
266 264 268 182 307 184 97 94 85 88 91 212 70 76 91 105 116 118 134 136 134 134 126 128 124 123 121 121 128 125 119 118 113 110 106 102 106 102 94 94 93 98 98 96 100 100 105 105 114
270 212 256 257 245 100 87 88 97 120 135 106 106 92 86 105 104 125 142 137 120 102 123 126 124 122 120 121 130 123 126 120 118 113 110 109 110 103 91 93 96 98 99 99 99 101 99 105 120
247 60 299 294 9 86 83 88 86 104 112 100 101 103 93 104 123 142 142 132 136 164 135 131 126 125 124 130 126 124 123 122 119 113 113 114 110 103 95 90 102 103 101 100 100 103 102 111 126
22 62 308 242 112 92 86 98 113 94 116 125 105 102 107 119 131 150 140 140 128 155 136 131 125 128 128 130 129 125 122 121 121 118 120 113 113 110 103 96 103 108 103 97 99 101 105 112 126
178 182 207 316 292 100 94 64 304 124 124 117 128 124 127 128 140 110 183 123 144 137 130 127 129 130 129 130 131 131 127 126 123 121 124 117 116 116 112 105 108 113 114 107 108 102 100 104 121
274 112 272 74 294 86 67 139 82 66 98 110 54 129 143 141 145 143 172 129 85 81 132 133 137 137 133 131 137 138 135 131 132 128 122 119 117 123 119 107 108 117 114 107 113 116 119 113 113
281 53 69 344 326 46 11 39 53 91 126 129 169 159 134 145 145 144 137 122 109 187 136 139 125 142 139 141 143 139 139 127 124 126 128 117 113 119 119 134 121 127 122 122 124 136 125 119 143
72 55 197 227 157 148 267 5 114 152 111 93 93 105 128 155 142 155 133 185 143 113 145 133 130 160 148 140 130 124 133 136 128 122 132 129 129 127 136 139 133 135 140 139 142 159 165 189 197
55 240 165 152 143 189 312 334 320 287 110 139 124 132 143 155 156 165 156 162 136 142 158 146 138 140 144 152 145 113 162 123 134 131 111 128 136 123 122 134 146 152 155 211 247 226 238 277 225
114 43 23 102 167 81 122 268 318 82 272 276 125 142 154 166 167 150 186 145 136 135 173 169 131 140 166 137 187 169 159 144 146 128 138 161 143 145 171 184 207 220 223 147 231 192 161 56 21
105 130 119 149 150 143 166 222 296 167 210 167 136 155 160 152 188 150 149 159 139 144 151 126 129 157 201 149 171 163 165 143 138 147 156 155 126 140 142 187 205 243 203 188 154 154 142 143 108
107 279 120 112 146 167 198 122 274 243 131 132 155 165 132 207 176 141 147 147 146 139 140 136 142 167 185 129 150 115 101 139 142 152 138 86 132 148 185 204 186 157 310 154 146 206 206 125 111
164 199 138 164 166 236 171 129 201 286 331 146 179 166 150 182 172 151 143 142 154 145 144 134 143 152 153 157 130 126 164 158 146 149 145 131 160 169 204 219 201 163 216 139 180 202 263 148 124
243 98 237 143 138 151 159 150 1 318 318 157 180 157 156 140 153 154 155 162 154 152 136 145 157 162 155 169 160 193 137 121 133 156 164 158 161 188 202 196 193 199 194 190 208 218 220 166 163
230 208 205 31 168 133 176 122 185 220 269 341 209 184 150 151 148 155 161 170 151 144 143 169 154 150 168 178 200 296 113 145 142 164 189 162 189 220 227 244 192 216 220 237 214 235 190 173 158
206 233 197 176 159 149 201 194 200 227 243 119 316 296 158 160 170 158 166 164 156 145 153 175 160 157 168 183 176 155 131 140 167 178 151 166 195 239 272 125 252 276 357 201 218 336 177 202 199
347 101 119 127 160 172 203 209 192 198 206 154 221 265 244 176 167 167 166 157 157 154 163 196 157 156 171 179 173 181 192 182 167 204 171 171 199 241 273 328 250 301 83 56 237 3 7 320 304
256 255 261 147 147 195 279 209 204 190 200 189 200 233 271 198 164 163 167 160 162 157 168 177 166 164 169 186 165 194 189 159 155 165 165 171 193 221 201 281 34 98 249 210 61 249 26 301 291
252 256 240 143 148 227 261 280 253 187 189 197 200 182 260 257 158 193 168 165 159 158 167 178 179 179 189 195 171 166 148 161 204 172 164 200 196 211 286 263 35 302 277 263 132 162 161 236 324
248 217 265 272 265 279 141 253 246 196 190 194 188 183 220 241 184 177 171 168 163 162 167 177 181 183 203 199 181 176 206 182 185 180 185 183 196 216 230 256 265 274 0 140 301 119 83 36 353
260 360 351 250 250 281 210 250 286 187 202 197 196 196 211 226 212 178 184 171 168 163 171 169 178 185 195 205 204 184 200 221 131 197 166 181 190 225 229 217 241 283 313 334 347 346 347 28 49
283 279 248 258 250 243 247 237 261 190 187 170 201 209 191 213 275 173 192 174 161 164 172 168 175 186 195 200 206 198 205 186 202 193 192 196 205 212 221 227 212 247 283 317 324 328 325 325 331
228 244 237 226 224 227 338 230 311 99 91 167 213 197 186 195 222 197 193 174 162 164 171 169 172 179 191 196 203 210 215 203 185 176 190 223 216 199 215 215 217 232 249 262 281 286 292 291 301
202 240 250 240 156 272 209 140 71 124 128 173 196 267 191 186 212 213 159 181 182 168 162 170 170 175 188 197 201 208 210 205 206 206 218 212 216 220 228 207 223 238 242 243 250 265 268 265 268
252 214 252 281 290 275 228 114 74 19 49 347 300 172 182 203 197 219 197 185 166 185 165 168 168 174 180 189 197 202 211 220 203 210 213 215 223 252 185 211 221 231 235 241 249 252 265 277 276
251 7 283 232 269 278 271 80 81 3 356 353 219 160 165 192 197 207 244 200 183 179 169 171 166 171 182 192 189 198 205 217 229 231 205 217 224 232 256 242 239 241 239 238 243 244 256 259 261
201 229 228 284 282 290 293 114 176 275 313 50 43 23 225 201 209 170 210 178 272 180 178 172 167 170 181 199 193 192 195 206 214 223 229 221 242 238 238 239 245 246 246 243 244 239 246 264 252
251 250 273 238 257 261 326 289 212 216 324 111 86 31 323 34 312 175 130 299 236 274 182 174 167 172 182 194 201 197 198 202 203 210 223 223 226 232 237 244 250 252 252 248 247 251 250 258 255
Height
753 757 760 752 780 773 752 751 736 764 752 742 747 750 761 756 769 804 796 801 805 811 812 813 814 817 819 821 824 824 825 825 826 828 829 829 829 830 832 834 834 834 834 834 835 836 836 837 837
754 756 755 758 785 771 756 739 751 749 749 751 750 752 762 775 766 780 794 802 804 808 811 813 815 817 820 822 825 827 827 828 829 829 830 831 832 833 834 836 836 836 837 837 837 839 837 838 838
754 757 758 775 783 778 760 743 747 748 759 767 755 754 765 774 773 782 794 802 808 811 816 815 816 817 820 822 827 828 829 830 831 832 833 833 835 836 835 839 839 838 839 839 840 839 841 839 840
758 752 759 768 769 737 740 742 743 750 754 755 755 771 765 769 778 789 796 803 809 813 820 820 818 818 820 824 826 829 830 832 833 834 835 837 837 839 839 840 840 841 841 841 842 842 842 841 841
757 765 796 782 759 737 734 736 742 752 753 756 758 777 777 774 781 790 794 801 806 810 817 822 819 820 822 826 828 830 832 833 835 835 838 839 840 841 842 843 843 843 843 844 844 844 844 843 843
760 795 813 783 758 739 737 736 743 750 753 759 766 777 780 779 782 786 795 798 802 810 814 819 818 820 822 827 829 831 832 834 836 837 839 840 841 843 844 846 844 845 846 846 846 846 845 845 845
767 798 800 782 775 752 749 750 753 749 751 756 762 781 779 780 785 789 792 797 802 810 814 814 818 819 822 826 828 829 832 834 836 838 839 841 843 844 846 847 847 848 848 847 848 847 847 846 846
743 783 789 784 796 766 746 751 739 747 756 753 766 781 785 780 786 789 791 799 805 808 813 813 816 819 822 825 827 829 831 833 835 837 839 841 843 846 847 847 848 849 849 848 847 847 847 846 847
735 782 792 797 784 797 753 756 746 742 751 756 762 763 771 780 785 791 793 800 806 816 817 813 819 825 823 825 830 833 835 836 836 836 838 840 843 847 848 848 848 849 849 848 847 848 847 847 846
751 794 789 780 780 785 772 763 753 752 756 765 765 766 775 781 784 790 794 798 803 814 813 818 821 825 826 828 836 839 840 840 838 838 839 842 845 847 848 849 849 849 848 847 847 847 847 846 846
752 772 762 760 765 769 769 771 765 759 763 757 769 774 777 781 784 788 792 793 800 805 814 814 821 826 829 830 837 834 836 839 841 839 840 843 845 847 847 848 848 849 847 847 846 846 845 843 843
759 756 757 758 765 769 780 779 779 773 780 765 763 774 777 780 781 784 792 799 801 811 814 817 818 821 824 830 836 836 835 838 839 839 840 842 845 847 847 847 847 847 846 847 844 845 845 843 842
755 756 759 754 760 769 772 781 787 774 764 760 765 772 774 780 782 783 789 796 800 807 814 818 821 821 819 825 830 835 835 836 836 837 839 842 844 846 846 846 847 845 845 844 843 844 843 843 844
753 757 756 755 764 768 775 783 788 763 754 761 767 769 775 779 780 785 789 794 800 806 813 818 823 825 823 824 826 834 835 836 835 837 840 842 843 845 845 844 844 844 844 843 843 843 843 845 846
747 763 758 761 765 773 764 802 795 779 770 764 766 766 773 776 779 784 788 795 801 806 812 817 822 825 826 825 828 834 831 839 836 839 841 843 843 844 843 844 843 843 842 843 844 844 843 846 847
747 761 780 760 764 767 770 808 799 779 783 769 764 766 773 774 778 784 790 794 800 806 810 815 821 825 826 826 827 832 834 835 839 840 842 842 843 843 842 842 841 841 842 841 841 841 841 843 844
750 771 779 792 760 769 776 810 802 796 789 776 769 765 771 775 780 784 789 794 799 805 811 817 820 822 827 828 829 830 832 832 836 841 843 843 842 841 841 843 844 844 843 841 836 833 833 836 840
756 755 759 781 766 767 782 788 789 783 785 785 783 778 769 774 780 782 787 793 800 806 811 817 819 823 827 829 830 831 832 833 838 841 841 841 841 841 844 845 845 844 847 842 840 839 839 841 842
738 752 758 762 755 762 773 774 773 771 779 791 798 779 770 771 776 781 784 791 799 806 812 815 818 821 827 830 831 832 832 835 838 839 842 840 840 842 847 844 841 838 848 837 851 851 850 845 845
738 751 757 749 750 760 762 764 758 762 768 774 782 780 780 765 775 776 782 787 795 804 811 815 818 823 825 827 830 831 832 834 836 838 839 838 840 843 847 845 842 836 841 851 854 846 851 843 847
747 751 747 755 757 753 762 770 758 750 759 765 769 782 775 778 768 774 776 784 790 799 808 814 817 822 823 825 828 829 832 834 836 838 837 837 839 843 845 846 844 839 837 848 851 849 853 854 856
759 732 739 748 764 783 760 805 753 746 754 758 762 773 771 766 759 766 771 779 785 795 802 810 815 820 822 824 826 827 829 831 832 834 835 836 838 841 843 845 845 842 858 837 853 846 849 854 851
747 729 739 749 761 765 766 779 748 736 748 751 753 756 758 758 755 760 764 772 780 789 797 803 812 817 820 824 825 827 829 830 831 832 834 836 837 837 840 842 842 838 840 847 835 832 839 851 854
731 741 747 749 754 780 752 755 747 738 739 744 743 745 749 757 758 754 762 766 773 784 791 798 806 812 819 823 825 826 828 830 829 834 833 836 836 836 836 837 838 838 835 833 832 833 835 842 847
746 756 781 784 777 779 734 742 734 735 736 738 749 736 741 751 755 752 761 761 768 776 786 793 800 808 814 819 822 825 827 829 830 831 831 834 835 836 837 837 837 837 838 839 839 840 840 842 844
748 752 768 784 775 774 743 772 758 736 728 726 740 744 732 743 747 747 755 763 767 772 778 788 794 803 808 815 819 823 825 827 828 828 828 829 832 833 835 837 838 839 839 840 841 842 842 843 844
745 756 733 752 739 751 735 737 736 734 732 723 715 719 729 735 742 745 746 758 760 771 773 780 790 797 804 809 815 819 822 824 824 826 827 828 829 832 833 837 837 838 838 839 840 841 841 841 842
736 730 762 752 782 780 745 763 778 759 744 730 723 723 729 731 737 747 746 754 758 763 769 776 782 790 798 805 810 814 818 821 823 825 826 827 828 829 831 831 833 835 836 837 839 839 840 840 841
741 749 749 748 762 779 773 791 761 757 741 736 742 746 732 734 737 745 750 753 764 760 764 770 777 784 792 799 804 808 811 816 819 823 825 826 828 829 830 830 830 831 832 834 837 837 837 839 840
722 734 738 767 770 754 767 766 738 736 730 736 749 747 745 745 753 748 750 752 765 770 759 763 768 777 786 793 798 803 806 810 815 818 820 823 825 826 828 829 828 828 830 830 832 832 832 834 835